Regional Weather Roundup
Issued by NWS Grand Forks, ND

Home | Current Version | Previous Version | Text Only | Print | Product List | Glossary On
Versions: 1 2 3 4 5 6 7 8 9 10 11 12 13 14 15 16 17 18 19 20 21 22 23 24 25 26 27 28 29 30 31 32 33 34 35 36 37 38 39 40 41 42 43 44 45 46 47 48 49 50
000
ASUS43 KFGF 181231
RWRFGF
PRAIRIE TO PINES  WEATHER ROUNDUP
NATIONAL WEATHER SERVICE EASTERN NORTH DAKOTA/GRAND FORKS ND
600 AM CST THU DEC 18 2014

 **SATELLITE DATA USED TO AUGMENT SKY COVER AT AUTOMATED STATIONS**
 *****  WEATHER ACROSS EASTERN NORTH DAKOTA  *****

CITY           SKY/WX    TMP DP  RH WIND       PRES   REMARKS
GRAND FORKS    FAIR       5   1  83 SE5       30.26F WCI  -4
6HR MIN TEMP:   2; 6HR MAX TEMP:   9;

GRAND FRKS AFB FAIR       1  -1  94 S2        30.25F
DEVILS LAKE    FAIR      10   1  67 SE9       30.14F WCI  -2
6HR MIN TEMP:   3; 6HR MAX TEMP:   9;

FARGO          FAIR       8   4  83 CALM      30.26F
WAHPETON ARPT  FAIR       9   3  78 SE3       30.26F
$$

 ***** WEATHER ACROSS CENTRAL AND WESTERN NORTH DAKOTA  *****

CITY           SKY/WX    TMP DP  RH WIND       PRES   REMARKS
BISMARCK       CLOUDY    16  15  96 S9        30.10F WCI   4
6HR MIN TEMP:  16; 6HR MAX TEMP:  17;

MINOT          MOCLDY    15  11  83 SE6       30.06F WCI   6
6HR MIN TEMP:   4; 6HR MAX TEMP:  15; 6HR PCP: TRACE;

JAMESTOWN      CLOUDY    13  10  88 SE7       30.15F WCI   3
6HR MIN TEMP:   3; 6HR MAX TEMP:  13; 6HR PCP: TRACE;

MINOT AFB      CLOUDY    14  13  98 SE7       30.06S WCI   3
GARRISON         N/A     18  15  88 S7        30.05F WCI   9
WILLISTON      CLOUDY    21  17  84 S5        30.00F WCI  15
6HR MIN TEMP:  20; 6HR MAX TEMP:  21;

DICKINSON      CLOUDY    21  17  84 S10       29.95F WCI  10
6HR MIN TEMP:  19; 6HR MAX TEMP:  21;

HETTINGER      CLOUDY    20  18  92 S6        29.98F WCI  12
6HR MIN TEMP:  18; 6HR MAX TEMP:  20;

$$

 *****  OTHER AIRPORT OBSERVATIONS IN OUR AREA  *****

CITY           SKY/WX    TMP DP  RH WIND       PRES   REMARKS
WALHALLA         N/A      1   1 100 SE5       30.23F WCI  -8
GRAFTON AIRPOR NOT AVBL
VALLEY CITY AR CLOUDY    10  10 100 S6        30.19S WCI   1
CANDO          CLOUDY     7   5  92 SE8       30.15F WCI  -6
CAVALIER APRT  FAIR       3   0  85 S3        30.24F
GWINNER        PTSUNNY   14  14 100 MISG      30.21F
SHEYENNE NWR     N/A     10   7  87 CALM      29.95S
ROLLA          FAIR       3   1  92 S7        30.11F WCI  -9
 ***** THE ABOVE OBSERVATIONS ARE NON NWS ARE NOT QUALITY
       CONTROLLED AND MAY MIS-REPORT RAIN FOR SNOW...
$$

  *****  WEATHER ACROSS NORTHERN MINNESOTA  *****

CITY           SKY/WX    TMP DP  RH WIND       PRES   REMARKS
FLAG ISLAND    FAIR       7   3  85 SE3       30.27S
WARROAD        FAIR       5   1  85 CALM      30.27S
ROSEAU         FAIR       5   0  78 CALM      30.26S
HALLOCK        FAIR       9   5  85 SE6       30.25F WCI  -1
THF RVR FALLS  FAIR       9   7  92 SE5       30.25S WCI   0
6HR MIN TEMP:   7; 6HR MAX TEMP:  10;

BAUDETTE       FAIR       4   0  83 E6        30.27F WCI  -7
6HR MIN TEMP:   3; 6HR MAX TEMP:   6;

WASKISH        FAIR       1   0  92 CALM      30.27S
CROOKSTON      FAIR       7   3  85 SE5       30.27F WCI  -2
STEPHEN NDAWN    N/A      3   1  92 SE3         N/A
GREENBUSH NDAW   N/A      7   3  85 S2          N/A
$$
  *****  WEATHER ACROSS CENTRAL AND WEST MINNESOTA  *****

CITY           SKY/WX    TMP DP  RH WIND       PRES   REMARKS
FOSSTON        FAIR       3   1  92 CALM      30.25R
BEMIDJI        FAIR       3   0  86 CALM      30.25R
PARK RAPIDS    FAIR       4  -1  80 CALM      30.24S
6HR MIN TEMP:   2; 6HR MAX TEMP:   8;

ELBOW LAKE     FAIR       8   6  90 E6        30.24F WCI  -2
6HR MIN TEMP:   7; 6HR MAX TEMP:  10;

WADENA         FAIR       1   0  92 CALM      30.25S
DETROIT LAKES  FAIR      10   9  92 SE6       30.25S WCI   1
MOORHEAD       FAIR       9   9 100 CALM      30.26F
FERGUS FALLS   FAIR       9   5  85 SE8       30.28F WCI  -4
MORRIS MN      FAIR       7   3  85 SE5       30.24S WCI  -2
STAPLES        FAIR       3   1  92 CALM      30.26S
$$
  *****  WEATHER ELSEWHERE ACROSS MINNESOTA  *****

CITY           SKY/WX    TMP DP  RH WIND       PRES   REMARKS
DULUTH         FLURRIES  19  14  81 CALM      30.26F
6HR MIN TEMP:  17; 6HR MAX TEMP:  19; 6HR PCP: TRACE;

INTRNTL FALLS  FAIR       1  -3  83 SE3       30.30R
6HR MIN TEMP:  -1; 6HR MAX TEMP:   4;

ELY            CLOUDY     7   3  85 CALM      30.29S
CLOQUET        CLOUDY    18  14  86 CALM      30.28R
WHEATON        FAIR       1   0  92 CALM      30.27S
BRAINERD       MOCLDY     1  -3  83 CALM      30.28F
6HR MIN TEMP:  -1; 6HR MAX TEMP:   3;

HIBBING        CLOUDY    15  10  80 CALM      30.27F
6HR MIN TEMP:   1; 6HR MAX TEMP:  15;

ALEXANDRIA     FAIR       8   5  87 SE3       30.25S
6HR MIN TEMP:   8; 6HR MAX TEMP:  10;

SAINT CLOUD    FAIR      10   4  76 CALM      30.28F
6HR MIN TEMP:   9; 6HR MAX TEMP:  13;

MINNEAPOLIS    MOCLDY    14  10  84 CALM      30.30S
6HR MIN TEMP:  11; 6HR MAX TEMP:  15;

$$

  *****  WEATHER ACROSS SOUTH DAKOTA  *****

CITY           SKY/WX    TMP DP  RH WIND       PRES   REMARKS
SIOUX FALLS    CLOUDY    19  15  84 E6        30.21S WCI  11
6HR MIN TEMP:  13; 6HR MAX TEMP:  19;

BROOKINGS      NOT AVBL
WATERTOWN      CLOUDY    16  10  77 SE7       30.17S WCI   6
6HR MIN TEMP:   5; 6HR MAX TEMP:  16;

HURON          CLOUDY    19  15  84 SE7       30.19F WCI  10
6HR MIN TEMP:  14; 6HR MAX TEMP:  19;

SISSETON         N/A      7   4  87 S6        30.23S WCI  -3
ABERDEEN       CLOUDY    18  12  77 S7        30.20S WCI   9
6HR MIN TEMP:  12; 6HR MAX TEMP:  18;

MITCHELL       CLOUDY    21  17  84 SE6       30.20F WCI  13
PIERRE         CLOUDY    21  19  92 SE8       30.10F WCI  11
6HR MIN TEMP:  18; 6HR MAX TEMP:  21;

MOBRIDGE       CLOUDY    20  17  88 SE12      30.07F WCI   8
RAPID CITY     CLOUDY    22  20  92 S7        29.99S FOG     WCI  13
6HR MIN TEMP:  22; 6HR MAX TEMP:  23;

$$

  *****  SOME WEATHER IN NEARBY STATES *****

CITY           SKY/WX    TMP DP  RH WIND       PRES   REMARKS
GLASGOW MT     CLOUDY    24  20  84 E7        29.94S WCI  16
6HR MIN TEMP:  23; 6HR MAX TEMP:  24; 6HR PCP: TRACE;

GREAT FALLS MT CLOUDY    34  25  69 S13       29.89S WCI  25
6HR MIN TEMP:  30; 6HR MAX TEMP:  34;

CHEYENNE WY    CLEAR     22  15  75 W6        29.97S WCI  14
6HR MIN TEMP:  19; 6HR MAX TEMP:  30;

SCOTTSBLUFF NE FOG        9   6  88 NW7       30.02S VSB 1/2 WCI  -2
6HR MIN TEMP:   9; 6HR MAX TEMP:  18;

OMAHA NE       FLURRIES  27  20  75 SE6       30.24S WCI  20
6HR MIN TEMP:  27; 6HR MAX TEMP:  28; 6HR PCP: TRACE;

DES MOINES IA  CLOUDY    23  16  74 E8        30.27S WCI  14
6HR MIN TEMP:  21; 6HR MAX TEMP:  23;

DAVENPORT IA   FAIR      16  12  84 CALM      30.29R
6HR MIN TEMP:  14; 6HR MAX TEMP:  17;

CHICAGO IL     FAIR      19  14  81 W5        30.27S WCI  12
6HR MIN TEMP:  19; 6HR MAX TEMP:  24;

EAU CLAIRE WI  CLOUDY    22  18  85 NE3       30.27F
6HR MIN TEMP:  19; 6HR MAX TEMP:  22;

LA CROSSE WI   CLOUDY    21  15  78 CALM      30.29F
6HR MIN TEMP:  17; 6HR MAX TEMP:  21;

$$

  *****  SOME NATIONAL WEATHER *****

CITY           SKY/WX    TMP DP  RH WIND       PRES   REMARKS
LA GUARDIA NY  MOCLDY    38  24  57 NW23G29   29.95R
6HR MIN TEMP:  38; 6HR MAX TEMP:  42; 6HR PCP: TRACE;

RALEIGH NC     PTCLDY    35  25  66 CALM      30.15R
6HR MIN TEMP:  31; 6HR MAX TEMP:  41;

ATLANTA GA     MOCLDY    36  30  79 NW9       30.15R
6HR MIN TEMP:  36; 6HR MAX TEMP:  40;

NEW ORLEANS LA MOCLDY    52  47  83 E5        30.16S
6HR MIN TEMP:  48; 6HR MAX TEMP:  52;

OKLAHOMA CITY  DRIZZLE   39  37  92 SE6       30.10S FOG
6HR MIN TEMP:  38; 6HR MAX TEMP:  39; 6HR PCP: TRACE;

ALBUQUERQUE NM PTCLDY    30  27  88 E5        30.12F
6HR MIN TEMP:  30; 6HR MAX TEMP:  36;

SALT LAKE CITY MOCLDY    31  28  89 CALM      30.08R
6HR MIN TEMP:  30; 6HR MAX TEMP:  35;

LOS ANGELES CA PTCLDY    51  44  77 CALM      30.12S


USA.gov is the U.S. government's official web portal to all federal, state and local government web resources and services.